Tracking 29892 objects as of 21-Nov-2024
HD Live streaming from Space Station
objects crossing your sky now

STARLINK-1738

Track STARLINK-1738 now!
10-day predictions
STARLINK-1738 is classified as:


NORAD ID: 46336
Int'l Code: 2020-062M
Perigee: 553.4 km
Apogee: 555.2 km
Inclination: 53.1 °
Period: 95.6 minutes
Semi major axis: 6925 km
RCS: Unknown
Launch date: September 3, 2020
Source: United States (US)
Launch site: AIR FORCE EASTERN TEST RANGE (AFETR)
Your satellite tracking list
Your tracking list is empty




NASA's NSSDC Master Catalog

Two Line Element Set (TLE):
1 46336U 20062M   24325.37524283  .00001523  00000-0  12103-3 0  9993
2 46336  53.0555 325.8938 0001253 137.5007 222.6079 15.06416775233096
Source of the keplerian elements: AFSPC